Regional Weather Roundup
Issued by NWS

Home | Current Version | Previous Version | Text Only | Print | Product List | Glossary On
Versions: 1 2 3 4 5 6 7 8 9 10 11 12 13 14 15 16 17 18 19 20 21 22 23 24 25 26 27 28 29 30 31 32 33 34 35 36 37 38 39 40 41 42 43 44 45 46 47 48 49 50
000
ASUS45 KBOU 301707
RWRCO

WEATHER ROUNDUP FOR COLORADO
NATIONAL WEATHER SERVICE DENVER/BOULDER CO
1100 AM MDT TUE SEP 30 2014

NOTE: "FAIR" INDICATES FEW OR NO CLOUDS BELOW 12000 FEET WITH NO
SIGNIFICANT WEATHER AND/OR OBSTRUCTIONS TO VISIBILITY.

COZ001>005-013-030-031-301800-
...NORTHWEST COLORADO...

CITY           SKY/WX    TMP DP  RH WIND       PRES   REMARKS
CRAIG          CLOUDY    54  38  54 W13       29.98F
HAYDEN         CLOUDY    52  36  54 W13G18    29.98F
MEEKER         CLOUDY    51  40  65 VRB3      30.01S
MOUNT WERNER   NOT AVBL
STEAMBOAT SPGS CLOUDY    49  39  66 S5        30.00S
WALDEN         CLOUDY    41  34  75 SW17G23   30.01S
$$

COZ006>008-011-301800-
...WEST CENTRAL VALLEYS...

CITY           SKY/WX    TMP DP  RH WIND       PRES   REMARKS
GRAND JUNCTION PTSUNNY   54  43  66 SE8       30.00F
MONTROSE       CLOUDY    54  42  64 CALM      30.05S
EAGLE          CLOUDY    46  43  87 CALM      30.06S
RIFLE          CLOUDY    46  42  86 CALM      30.03S
DELTA          CLOUDY    54  46  76 NE3       30.03F HAZE
NUCLA          PTSUNNY   54  41  62 NW3       30.08F
$$

COZ017>023-064>068-301800-
...SOUTHWEST COLORADO...

CITY           SKY/WX    TMP DP  RH WIND       PRES   REMARKS
DURANGO        SUNNY     50  39  66 CALM      30.09F
CORTEZ         SUNNY     57  39  51 S5        30.06F
PAGOSA SPRINGS SUNNY     47  35  62 CALM      30.12S
TELLURIDE      NOT AVBL
WOLF CREEK PAS FOG       30  30 100 SW13      30.22S VSB<1/4 WCI  20
$$

COZ009-010-012-014-032>034-037-058>063-301800-
...CENTRAL COLORADO...

CITY           SKY/WX    TMP DP  RH WIND       PRES   REMARKS
ASPEN          CLOUDY    44  36  73 CALM      30.06F
BUENA VISTA    MOSUNNY   53  25  33 W20G28    30.03S
COPPER MTN     CLOUDY    32  28  86 W17G24    30.15F WCI  21
BERTHOUD PASS    N/A     23  21  93 NW31G38   30.12F WCI   5
COTTONWOOD PAS CLOUDY    45  27  49 NW10G18   30.09S
GUNNISON       CLOUDY    43  34  70 E3        30.11S
KREMMLING      CLOUDY    46  36  66 SW8       30.04S
LEADVILLE      CLOUDY    38  27  64 N14       30.09F
SALIDA         MOSUNNY   58  28  32 SW17G28   30.09F
SUNLIGHT       CLOUDY    34  34 100 CALM      30.16R FOG
WILKERSON PASS NOT AVBL
$$

COZ069>075-301800-
...SAN LUIS VALLEY/SANGRE DE CRISTO MOUNTAINS...

CITY           SKY/WX    TMP DP  RH WIND       PRES   REMARKS
ALAMOSA        SUNNY     51  32  48 VRB5      30.07F
LA VETA PASS   SUNNY     43  27  52 S13G24    30.10S
SAGUACHE       CLOUDY    48  32  53 CALM      30.09F
$$

COZ035-036-038>040-301800-
...NORTHERN COLORADO FRONT RANGE...

CITY           SKY/WX    TMP DP  RH WIND       PRES   REMARKS
DENVER INTL AP MOSUNNY   65  33  30 W15       29.86S
DMNS CITY PARK   N/A     65  29  26 W9G20     29.86S
AURORA         MOSUNNY   62  32  32 VRB7      29.89S
FRONT RANGE AP MOSUNNY   64  36  34 SW12      29.89R
ERIE MUNI ARPT SUNNY     64  37  36 N9        29.86R
BOULDER MUN AP SUNNY     64  32  29 SE6       29.86R
CENTENNIAL     MOSUNNY   61  30  31 SW6       29.90S
BROOMFIELD     NOT AVBL
FORT COLLINS   SUNNY     61  45  55 NE9       29.86S
LONGMONT       SUNNY     66  36  33 CALM      29.87R HAZE
$$

COZ041-046-047-076>085-087-088-301800-
...PIKES PEAK/PALMER DIVIDE AND SOUTHERN FOOTHILLS...

CITY           SKY/WX    TMP DP  RH WIND       PRES   REMARKS
COLO. SPRINGS  MOSUNNY   60  30  32 E8        29.93S
A. F. ACADEMY  SUNNY     61  26  25 W18G26    29.94R
ELLICOTT       NOT AVBL
FALCON         SUNNY     59  30  33 SW10G17   29.96S
FORT CARSON    SUNNY     58  37  45 VRB2      29.90F
LIMON          SUNNY     62  38  40 CALM      29.88F
MONUMENT HILL  SUNNY     57  28  33 W13       29.95R
TRINIDAD       SUNNY     64  30  27 SW5       29.92F
$$

COZ042>045-048>051-090-091-301800-
...NORTHEAST COLORADO...

CITY           SKY/WX    TMP DP  RH WIND       PRES   REMARKS
GREELEY ARPT   SUNNY     61  45  55 E8        29.85F
AKRON          SUNNY     64  44  48 W8        29.84S
BURLINGTON     SUNNY     66  42  41 SW13      29.85F
WRAY           MOSUNNY   70  43  37 S12G18    29.81F
STERLING       SUNNY     68  50  52 CALM      29.81F
HOLYOKE        MOSUNNY   72  46  40 SW6       29.81F
FORT MORGAN    SUNNY     65  39  38 W3        29.84F
$$

COZ086-089-092>099-301800-
...SOUTHEAST COLORADO...

CITY           SKY/WX    TMP DP  RH WIND       PRES   REMARKS
PUEBLO         SUNNY     68  34  28 W20G26    29.87F
LA JUNTA       SUNNY     65  44  46 SE5       29.86F
LAMAR          SUNNY     66  44  45 W6        29.84F
SPRINGFIELD      N/A     69  36  29 NW12G20   29.86F
$$



USA.gov is the U.S. government's official web portal to all federal, state and local government web resources and services.